#timestamp,LO_Frequency,Hit,StdDev 
1559037615.2,286046998.9,N
1559037635.0,286047001.0,N
1559037636.0,286047001.0,N
1559037655.8,286047001.0,N
1559037675.6,286047002.8,N
1559037695.5,286047000.9,N
1559037715.3,286047001.2,N
1559037735.1,286047000.5,N
1559037755.9,286047000.8,N
1559037775.7,286047002.4,N
1559037795.5,286047001.2,N
1559037815.4,286047000.1,N
1559037835.2,286046998.5,N
1559037855.1,286046999.6,N
1559037856.0,286046999.6,N
1559037875.8,286046998.8,N
1559037895.6,286046997.4,N
1559037915.5,286046996.7,N
1559037935.3,286046996.8,N
1559037955.1,286046999.6,N
1559037975.9,286046999.5,N
1559037995.7,286046999.3,N
1559038015.6,286047001.2,N
1559038035.4,286047001.2,N
1559038055.2,286046998.4,N
1559038075.1,286046998.3,N
1559038076.0,286046998.3,N
1559038095.8,286046998.3,N
1559038115.6,286046998.1,N
1559038135.5,286046999.6,N
1559038155.3,286046996.5,N
1559038175.2,286046997.0,N
1559038195.9,286046996.5,N
1559038215.7,286046996.5,N
1559038235.6,286046996.6,N
1559038255.4,286046997.3,N
1559038275.2,286046997.0,N
1559038295.1,286046999.0,N
1559038296.0,286046999.0,N
1559038315.8,286046996.6,N
1559038335.7,286046998.6,N
1559038355.5,286046998.7,N
1559038375.3,286047001.2,N
1559038395.2,286046998.1,N
1559038415.0,286046998.2,N
1559038415.9,286046998.2,N
1559038435.8,286046998.9,N
1559038455.6,286047000.8,N
1559038475.4,286047000.0,N
1559038495.3,286047001.0,N
1559038515.1,286046998.7,N
1559038535.8,286046999.0,N
1559038555.7,286046998.7,N
1559038575.5,286046998.2,N
1559038595.4,286047001.1,N
1559038615.2,286046998.6,N
1559038665.1,286046998.5,E
1559038675.9,286046998.5,N
1559038695.7,286047000.8,P
1559038715.6,286046998.3,N
1559038735.4,286046999.2,N
1559038755.2,286046999.1,N
1559038775.1,286046998.4,N
1559038776.0,286046998.4,N
1559038795.8,286046998.5,N
1559038815.6,286047001.2,N
1559038835.5,286046998.6,N
1559038855.3,286046998.7,N
1559038875.2,286046997.0,Y
1559038895.9,286046999.6,P
1559038915.7,286046999.1,P
1559038935.6,286046998.8,P
1559038955.4,286046998.8,Y
1559038975.3,286046999.0,P
1559038995.1,286047000.8,P
1559038996.0,286047000.8,N
1559039015.8,286047000.3,N
1559039035.7,286046998.5,N
1559039055.5,286047002.3,N
1559039075.3,286047001.0,N
1559039095.2,286047001.1,N
1559039115.0,286047001.1,N
1559039115.9,286047001.1,N
1559039135.8,286047000.1,N
1559039155.6,286047000.2,N
1559039175.4,286047000.9,N
1559039195.3,286047000.0,N
1559039215.1,286047000.0,N
1559039235.8,286047000.4,N
1559039255.7,286047002.6,N
1559039275.5,286047002.4,N
1559039295.4,286047002.4,N
1559039315.2,286047000.1,N
1559039335.0,286047000.9,N
1559039335.9,286047000.9,N
1559039355.8,286046999.8,N
1559039375.6,286047002.7,N
1559039395.5,286047001.5,N
1559039415.3,286047001.9,N
1559039435.1,286047004.3,Y
1559039455.9,286047001.6,P
1559039475.7,286047001.4,P
1559039495.5,286047002.1,P
1559039515.4,286047001.9,Y
1559039535.2,286047001.2,P
1559039555.1,286047001.0,P
1559039556.0,286047001.0,P
1559039575.8,286047000.3,N
1559039595.6,286047000.5,N
1559039615.5,286047000.5,N
1559039635.3,286046998.1,Y
1559039655.2,286046998.1,P
1559039675.9,286047000.8,N
1559039695.7,286047001.0,N
1559039715.6,286047000.4,N
1559039735.4,286047000.7,N
1559039755.2,286047000.2,N
1559039775.1,286047000.2,N
1559039776.0,286047000.2,N
1559039795.8,286047002.1,N
1559039815.7,286046999.7,N
1559039835.5,286047002.6,N
1559039855.3,286047000.5,N
1559039875.2,286046998.1,N
1559039895.0,286047001.2,N
1559039895.9,286047001.2,N
1559039915.7,286047000.7,N
1559039935.6,286047000.2,N
1559039955.4,286047000.2,N
1559039975.3,286047000.2,N
1559039995.1,286047002.5,N
1559039996.0,286047002.5,N
1559040015.8,286047002.1,N
1559040035.7,286047000.1,N
1559040055.5,286047002.4,N
1559040075.3,286047001.9,N
1559040095.2,286047004.2,Y
1559040115.0,286047002.8,P
1559040115.9,286047002.8,N
1559040135.8,286046999.7,N
1559040155.6,286047000.5,N
1559040175.4,286046998.1,N
1559040195.3,286047000.2,N
1559040215.1,286047001.3,N
1559040235.8,286047001.7,N
1559040255.7,286047000.1,N
1559040275.5,286047000.9,N
1559040295.4,286047002.1,N
1559040315.2,286047000.5,N
1559040335.0,286047000.7,N
1559040335.9,286047000.7,N
1559040355.8,286047001.2,N
1559040375.6,286046999.5,N
1559040395.4,286046999.3,N
1559040415.3,286046999.0,N
1559040435.1,286047000.4,N
1559040455.9,286047000.0,N
1559040475.7,286047002.7,N
1559040495.5,286047000.1,N
1559040515.4,286047001.4,N
1559040535.2,286046999.8,N
1559040555.0,286047000.7,N
1559040555.9,286047000.7,N
1559040575.8,286047000.6,N
1559040595.6,286046998.5,N
1559040615.5,286046999.4,N
1559040635.3,286046996.7,N
1559040655.1,286046998.2,N
1559040675.9,286046998.6,N
1559040695.7,286047000.9,N
1559040715.5,286046999.0,N
1559040735.4,286047000.8,N
1559040755.2,286047001.9,N
1559040775.1,286047002.3,N
1559040776.0,286047002.3,N
1559040795.8,286047002.5,N
1559040815.6,286047002.0,N
1559040835.5,286047002.2,N
1559040855.3,286047003.7,N
1559040875.1,286047001.7,N
1559040895.9,286047000.3,N
1559040915.7,286047000.7,N
1559040935.6,286047002.7,N
1559040955.4,286046999.9,N
1559040975.2,286046999.8,N
1559040995.1,286047002.2,N
1559040996.0,286047002.2,N
1559041015.8,286047002.6,N
1559041035.7,286047002.3,N
1559041055.5,286047001.5,N
1559041075.3,286047002.5,N
1559041095.2,286047003.2,N
1559041115.9,286047004.4,N
1559041135.7,286046999.8,N
1559041155.6,286047002.3,N
1559041175.4,286047002.8,N
1559041195.3,286047002.7,N
